• MPC Preparation (Info)

  • MPEC 2019-U248 : 2019 UD10

    The following Minor Planet Electronic Circular may be linked-to from your own Web pages, but must not otherwise be redistributed electronically.

    A form allowing access to any MPEC is at the bottom of this page.


    Read MPEC 2019-U247 Read MPEC 2019-U249


    M.P.E.C. 2019-U248                             Issued 2019 October 28, 20:15 UT
    
         The Minor Planet Electronic Circulars contain information on unusual
             minor planets and routine data on comets.  They are published
        on behalf of Division F of the International Astronomical Union by the
              Minor Planet Center, Smithsonian Astrophysical Observatory,
                              Cambridge, MA 02138, U.S.A.
    
                 Prepared using the Tamkin Foundation Computer Network
    
                                  MPC@CFA.HARVARD.EDU
                URL https://www.minorplanetcenter.net/    ISSN 1523-6714
    
                                    2019 UD10                                
    
    
    Observations:
         K19U10D* C2019 10 28.25082 04 42 25.89 +51 52 24.3                VEU248G96
         K19U10D  C2019 10 28.25615 04 42 24.36 +51 57 15.1          18.6 GVEU248G96
         K19U10D  C2019 10 28.26150 04 42 22.78 +52 02 05.6                VEU248G96
         K19U10D  C2019 10 28.26685 04 42 21.05 +52 06 49.4                VEU248G96
         K19U10D  C2019 10 28.30658 04 42 05.15 +52 39 55.3          18.3 GVEU248I52
         K19U10D  C2019 10 28.30693 04 42 04.96 +52 40 12.6          18.6 GVEU248I52
         K19U10D  C2019 10 28.30729 04 42 04.81 +52 40 29.1          18.6 GVEU248I52
         K19U10D  C2019 10 28.30765 04 42 04.64 +52 40 46.1          18.4 GVEU248I52
         K19U10D  C2019 10 28.37656 04 41 29.10 +53 29 46.1          18.9 GVEU248I52
         K19U10D  C2019 10 28.37692 04 41 28.92 +53 29 59.6          18.6 GVEU248I52
         K19U10D  C2019 10 28.37728 04 41 28.75 +53 30 13.3          18.7 GVEU248I52
         K19U10D  C2019 10 28.37764 04 41 28.52 +53 30 27.4          18.8 GVEU248I52
         K19U10D pC2019 10 28.76959704 43 54.88 +56 09 38.2          19.9 GVEU248L01
         K19U10D KC2019 10 28.77209204 43 55.51 +56 10 36.0          19.6 GVEU248L01
         K19U10D KC2019 10 28.77347704 43 55.85 +56 11 07.6          19.5 GVEU248L01
    
    Observer details:
    G96 Mt. Lemmon Survey.  Observer D. Rankin.  Measurers E. J. Christensen, G. A. 
       Farneth, D. C. Fuls, A. R. Gibbs, A. D. Grauer, H. Groeller, R. A. Kowalski, 
       S. M. Larson, G. J. Leonard, T. A. Pruyne, D. Rankin, R. L. Seaman, F. C. 
       Shelly, K. W. Wierzchos.  1.5-m reflector + 10K CCD.
    I52 Steward Observatory, Mt. Lemmon Station.  Observer D. C. Fuls.  Measurers 
       E. J. Christensen, G. A. Farneth, D. C. Fuls, A. R. Gibbs, A. D. Grauer, H. 
       Groeller, R. A. Kowalski, S. M. Larson, G. J. Leonard, T. A. Pruyne, D. 
       Rankin, R. L. Seaman, F. C. Shelly, K. W. Wierzchos.  1.0-m reflector + CCD.
    L01 Visnjan Observatory, Tican.  Observer K. Korlevic.  1.0-m f/2.9 reflector + 
       CCD.
    
    Orbital elements:
    2019 UD10                                                Earth MOID = 0.0012 AU
    Epoch 2019 Apr. 27.0 TT = JDT 2458600.5                 Bell
    M 313.36664              (2000.0)            P               Q
    n   0.28328957     Peri.  335.57228     +0.98258045     -0.15211005
    a   2.2960552      Node    33.72426     +0.18573595     +0.82282077
    e   0.5807209      Incl.   11.08683     -0.00614909     +0.54756599
    P   3.48           H   28.2           G   0.15           U   6
    Residuals in seconds of arc
    191028 G96  0.1+  0.2+    191028 I52  0.2-  0.6+    191028 I52  0.2+  0.3-
    191028 G96  0.2-  1.0-    191028 I52  0.1-  0.1+    191028 I52  0.1-  0.0
    191028 G96  0.1+  0.7+    191028 I52  0.1-  0.1+    191028 L01  0.3-  0.2+
    191028 G96  0.1+  0.2-    191028 I52  0.1-  0.1+    191028 L01  0.1+  0.1+
    191028 I52  0.1+  0.2-    191028 I52  0.0   0.2-    191028 L01  0.2+  0.3-
    
    Ephemeris:
    2019 UD10                a,e,i = 2.30, 0.58, 11                  q = 0.9627
    Date    TT    R. A. (2000) Decl.     Delta      r    Elong.  Phase     V
    2019 09 28    16 28 59.8 -60 29 56   0.1875  0.9730    75.7    93.6    27.8
    ...
    2019 10 13    16 42 09.1 -61 47 49   0.09404 0.9644    66.6   108.3    27.1
    ...
    2019 10 21    16 46 34.8 -63 00 43   0.04205 0.9767    62.1   115.7    25.8
    ...
    2019 10 27    17 53 32.2 -83 28 46   0.0030000.9932    74.1   105.8    19.5
    2019 10 28    04 38 34.0 +46 58 31   0.0039620.9965   133.4    46.4    17.9
    2019 10 29    04 43 07.0 +57 21 27   0.01042 0.9999   127.3    52.3    20.2
    ...
    2019 11 04    04 44 56.5 +62 07 24   0.04967 1.0230   127.6    50.2    23.6
    ...
    2019 11 12    04 41 37.6 +62 12 21   0.1023  1.0614   132.3    43.7    25.1
    ...
    2019 11 27    04 31 53.5 +60 13 10   0.2040  1.1517   140.5    33.0    26.4
    
    A. U. Tomatic                (C) Copyright 2019 MPC           M.P.E.C. 2019-U248
    


    Read MPEC 2019-U247 Read MPEC 2019-U249


    MPEC number:

    Enter an MPEC number in one of the following forms:

    • 1997-B01 (the full form)
    • J97B01 (the packed version of the full form)
    • B01 (the abbreviated form)